Погода в Сланцах

Россия / Саратовская область     52°10′54″N   43°35′05″E
темп.,
°C
ветер,
м/с
пор.,
м/с
влажн.,
%
обл.,
%
осадки,
мм/ч
давл.,
гПа
погр.,
м
9 марта, вт
вт901:00−12зсз22900 0.0 100921
04:00−14сз12900 0.0 101020
07:00−16ссз22910 0.0 101020
10:00−12ссз23920 0.0 101197
13:00−9сз338969 0.0 1012335
16:00−8сз469184 0.1 1013461
19:00−13сз349488 0.0 101463
22:00−14сз499580 0.0 1016190
10 марта, ср
ср1001:00−17сз479879 0.0 1017126
04:00−18зсз479876 0.1 1019123
07:00−20сз489889 0.0 1021168
10:00−19сз599587 0.1 1022309
13:00−17сз589191 0.0 1024457
16:00−16сз588996 0.0 1025589
19:00−19сз4696100 0.0 1026124
22:00−22сз469896 0.0 1028100
11 марта, чт
чт1101:00−24ссз349820 0.0 102958
04:00−25ссз349710 0.0 103143
07:00−26ссз33980 0.0 103226
10:00−21сз36950 0.0 1033222
13:00−18ссз359131 0.0 1033322
16:00−16сз348955 0.0 1033371
19:00−19сз339641 0.0 103321
22:00−21сз339520 0.0 103420
12 марта, пт
пт1201:00−21ссз23980 0.0 103420
04:00−21ссз22981 0.0 103420
07:00−21ссз239976 0.0 103520
10:00−17с129461 0.0 1036100
13:00−13ссв118852 0.0 1036247
16:00−11юз118673 0.0 1035313
19:00−16юз119685 0.0 103520
22:00−18ю229744 0.0 103620
13 марта, сб
сб1301:00−19ю33980 0.0 103722
04:00−20ю34980 0.0 103646
07:00−20ю34980 0.0 103651
10:00−15ю58930 0.0 1036215
13:00−9ю6108448 0.0 1035455
16:00−7ю7118274 0.0 1033716
19:00−9ю51284100 0.0 1031421
22:00−9ю61382100 0.0 1031352